ISS [Segment 01] 1 25544C 98067A 22173.50000000 -.00011372 00000+0 -19992-3 0 12 2 25544 51.6420 310.2762 0004305 286.6802 236.4239 15.49838314 11 ISS [Segment 02] 1 25544C 98067A 22173.75000000 -.00105816 00000+0 -18609-2 0 20 2 25544 51.6404 309.0400 0004282 292.3054 186.5686 15.49852867 15 ISS [Segment 03] 1 25544C 98067A 22174.00000000 .00099307 00000+0 17454-2 0 32 2 25544 51.6421 307.8026 0004475 293.9399 140.7015 15.49818367 12 ISS [Segment 04] 1 25544C 98067A 22174.25000000 .00031973 00000+0 56227-3 0 47 2 25544 51.6402 306.5613 0004395 292.0982 98.3276 15.49819014 15 ISS [Segment 05] 1 25544C 98067A 22174.50000000 -.00050206 00000+0 -88205-3 0 59 2 25544 51.6425 305.3233 0004382 291.2550 54.9349 15.49867047 11 ISS [Segment 06] 1 25544C 98067A 22174.75000000 -.00099666 00000+0 -17518-2 0 68 2 25544 51.6408 304.0870 0004303 296.7263 5.2533 15.49866604 11 ISS [Segment 07] 1 25544C 98067A 22175.00000000 .00078666 00000+0 13816-2 0 70 2 25544 51.6427 302.8495 0004563 298.4315 319.3297 15.49844015 14 ISS [Segment 08] 1 25544C 98067A 22175.25000000 .00002409 00000+0 42337-4 0 82 2 25544 51.6406 301.6077 0004401 297.3430 276.2189 15.49843959 18 ISS [Segment 09] 1 25544C 98067A 22175.50000000 -.00037233 00000+0 -65377-3 0 94 2 25544 51.6428 300.3705 0004368 296.9698 232.3761 15.49879543 16 ISS [Segment 10] 1 25544C 98067A 22175.75000000 -.00045474 00000+0 -79883-3 0 106 2 25544 51.6409 299.1340 0004395 301.8470 183.3056 15.49868568 16 ISS [Segment 11] 1 25544C 98067A 22176.00000000 .00066477 00000+0 11668-2 0 116 2 25544 51.6426 297.8964 0004553 303.3865 137.5602 15.49864318 10 ISS [Segment 12] 1 25544C 98067A 22176.25000000 .00098431 00000+0 17290-2 0 126 2 25544 51.6402 296.6546 0004325 300.9624 95.8029 15.49836087 11 ISS [Segment 13] 1 25544C 98067A 22176.50000000 -.00052162 00000+0 -91541-3 0 130 2 25544 51.6425 295.4179 0004368 301.3002 51.2590 15.49898818 16 ISS [Segment 14] 1 25544C 98067A 22176.75210425 -.00037393 00000+0 -66074-3 0 144 2 25544 51.6402 294.1708 0004864 298.3278 21.7928 15.49698238 17 ISS [Segment 15] 1 25544C 98067A 22177.00210425 .00036125 00000+0 63769-3 0 152 2 25544 51.6423 292.9337 0005074 299.3471 336.4151 15.49707163 16 ISS [Segment 16] 1 25544C 98067A 22177.25210425 .00066952 00000+0 11828-2 0 169 2 25544 51.6401 291.6918 0004859 297.1314 294.2982 15.49679412 13 ISS [Segment 17] 1 25544C 98067A 22177.50210425 -.00004129 00000+0 -72890-4 0 176 2 25544 51.6423 290.4559 0004901 298.1291 248.9506 15.49718054 12 ISS [Segment 18] 1 25544C 98067A 22177.75210425 .00034930 00000+0 61688-3 0 187 2 25544 51.6404 289.2191 0004984 301.8370 200.9141 15.49695173 19 ISS [Segment 19] 1 25544C 98067A 22178.00210425 .00023886 00000+0 42136-3 0 192 2 25544 51.6426 287.9820 0005140 303.0052 155.3989 15.49728666 10 ISS [Segment 20] 1 25544C 98067A 22178.25210425 .00132476 00000+0 23385-2 0 201 2 25544 51.6409 286.7399 0004872 300.7151 113.3737 15.49684725 16 ISS [Segment 21] 1 25544C 98067A 22178.50210425 -.00012652 00000+0 -22317-3 0 210 2 25544 51.6428 285.5042 0004927 302.5034 67.2501 15.49740670 18 ISS [Segment 22] 1 25544C 98067A 22178.75210425 .00024076 00000+0 42491-3 0 224 2 25544 51.6410 284.2673 0005005 306.5175 18.9235 15.49716487 19 ISS [Segment 23] 1 25544C 98067A 22179.00210425 -.00022468 00000+0 -39611-3 0 239 2 25544 51.6430 283.0300 0005219 306.9901 334.1206 15.49757299 10 ISS [Segment 24] 1 25544C 98067A 22179.25210425 .00094407 00000+0 16653-2 0 247 2 25544 51.6413 281.7878 0004874 305.6588 291.1499 15.49714542 19 ISS [Segment 25] 1 25544C 98067A 22179.50210425 .00040891 00000+0 72093-3 0 255 2 25544 51.6428 280.5526 0004988 307.9690 244.5272 15.49742081 17 ISS [Segment 26] 1 25544C 98067A 22179.75210425 .00067115 00000+0 11838-2 0 260 2 25544 51.6408 279.3155 0005080 311.1403 197.0558 15.49722088 16 ISS [Segment 27] 1 25544C 98067A 22180.00210425 -.00034589 00000+0 -60953-3 0 275 2 25544 51.6423 278.0781 0005195 311.9088 151.9715 15.49773045 11 ISS [Segment 28] 1 25544C 98067A 22180.25277778 .00143455 00000+0 25290-2 0 282 2 25544 51.6409 276.8329 0004821 309.6052 113.7459 15.49719370 11 ISS [Segment 29] 1 25544C 98067A 22180.50277778 .00024136 00000+0 42530-3 0 292 2 25544 51.6420 275.5979 0004961 312.2595 66.7894 15.49761512 13 ISS [Segment 30] 1 25544C 98067A 22180.75277778 .00050012 00000+0 88167-3 0 309 2 25544 51.6402 274.3606 0005124 315.0870 19.6730 15.49741042 18 ISS [Segment 31] 1 25544C 98067A 22181.00277778 -.00087862 00000+0 -15476-2 0 316 2 25544 51.6415 273.1231 0005235 314.6827 335.7739 15.49798040 14 ISS [Segment 32] 1 25544C 98067A 22181.25277778 .00084253 00000+0 14845-2 0 322 2 25544 51.6407 271.8812 0004855 312.8862 293.2896 15.49750111 10 ISS [Segment 33] 1 25544C 98067A 22181.50277778 .00068447 00000+0 12056-2 0 330 2 25544 51.6413 270.6462 0005007 315.8679 246.0236 15.49762450 17 ISS [Segment 34] 1 25544C 98067A 22181.75277778 .00066566 00000+0 11729-2 0 344 2 25544 51.6404 269.4087 0005175 318.3108 199.3006 15.49751133 18 ISS [Segment 35] 1 25544C 98067A 22182.00277778 -.00104723 00000+0 -18439-2 0 359 2 25544 51.6414 268.1709 0005297 318.4845 154.8378 15.49812366 14 ISS [Segment 36] 1 25544C 98067A 22182.25277778 .00118416 00000+0 20851-2 0 360 2 25544 51.6412 266.9291 0004886 316.9114 112.1424 15.49758756 10 ISS [Segment 37] 1 25544C 98067A 22182.50277778 .00004600 00000+0 80980-4 0 379 2 25544 51.6414 265.6940 0005078 320.7335 64.0463 15.49794257 15 ISS [Segment 38] 1 25544C 98067A 22182.75277778 .00051305 00000+0 90341-3 0 382 2 25544 51.6408 264.4565 0005237 322.6353 17.8782 15.49772468 16 ISS [Segment 39] 1 25544C 98067A 22183.00277778 -.00106152 00000+0 -18683-2 0 393 2 25544 51.6411 263.2181 0005325 322.4119 333.8293 15.49824343 15 ISS [Segment 40] 1 25544C 98067A 22183.25277778 .00066151 00000+0 11641-2 0 401 2 25544 51.6413 261.9769 0004920 321.4903 290.4895 15.49789914 14 ISS [Segment 41] 1 25544C 98067A 22183.50277778 .00016118 00000+0 28362-3 0 417 2 25544 51.6409 260.7418 0005104 325.3423 242.3816 15.49801617 16 ISS [Segment 42] 1 25544C 98067A 22183.75277778 .00066039 00000+0 11623-2 0 423 2 25544 51.6404 259.5041 0005299 327.0403 196.4268 15.49781866 14 ISS [Segment 43] 1 25544C 98067A 22184.00277778 -.00142451 00000+0 -25067-2 0 435 2 25544 51.6400 258.2655 0005314 327.0260 152.1802 15.49838394 18 ISS [Segment 44] 1 25544C 98067A 22184.25277778 .00075307 00000+0 13247-2 0 443 2 25544 51.6406 257.0248 0004919 325.6608 109.2927 15.49796698 10 ISS [Segment 45] 1 25544C 98067A 22184.50277778 -.00045853 00000+0 -80657-3 0 457 2 25544 51.6400 255.7896 0005162 329.4938 61.2087 15.49826682 18 ISS [Segment 46] 1 25544C 98067A 22184.75277778 .00052217 00000+0 91864-3 0 467 2 25544 51.6401 254.5519 0005321 330.5539 15.9011 15.49797256 12 ISS [Segment 47] 1 25544C 98067A 22185.00277778 -.00108648 00000+0 -19114-2 0 476 2 25544 51.6393 253.3128 0005282 330.0695 332.1385 15.49837453 11 ISS [Segment 48] 1 25544C 98067A 22185.25277778 .00038291 00000+0 67326-3 0 487 2 25544 51.6407 252.0725 0004945 328.6936 289.2659 15.49819491 10 ISS [Segment 49] 1 25544C 98067A 22185.50277778 -.00052245 00000+0 -91873-3 0 497 2 25544 51.6396 250.8370 0005145 332.9362 240.7855 15.49836972 16 ISS [Segment 50] 1 25544C 98067A 22185.75277778 .00093100 00000+0 16371-2 0 508 2 25544 51.6406 249.5992 0005384 333.4712 196.0126 15.49801327 13 ISS [Segment 51] 1 25544C 98067A 22186.00277778 -.00122135 00000+0 -21479-2 0 516 2 25544 51.6397 248.3596 0005348 333.5085 151.7393 15.49850368 16 ISS [Segment 52] 1 25544C 98067A 22186.25277778 .00016570 00000+0 29122-3 0 521 2 25544 51.6412 247.1196 0005017 333.0606 107.9498 15.49836623 11 ISS [Segment 53] 1 25544C 98067A 22186.50277778 -.00101699 00000+0 -17876-2 0 531 2 25544 51.6401 245.8840 0005264 337.4008 59.3821 15.49860230 19 ISS [Segment 54] 1 25544C 98067A 22186.75277778 .00064037 00000+0 11254-2 0 545 2 25544 51.6412 244.6463 0005444 337.7577 14.7979 15.49823171 15 ISS [Segment 55] 1 25544C 98067A 22187.00277778 -.00063217 00000+0 -11115-2 0 552 2 25544 51.6396 243.4060 0005326 338.1479 330.1885 15.49843708 10 ISS [Segment 56] 1 25544C 98067A 22187.25277778 .00003083 00000+0 54153-4 0 564 2 25544 51.6414 242.1670 0005073 337.4903 286.6137 15.49853473 12 ISS [Segment 57] 1 25544C 98067A 22187.50277778 -.00100590 00000+0 -17676-2 0 573 2 25544 51.6399 240.9312 0005296 341.7606 238.1280 15.49867417 12 ISS [Segment 58] 1 25544C 98067A 22187.75277778 .00088518 00000+0 15550-2 0 583 2 25544 51.6410 239.6936 0005501 341.8482 193.8213 15.49828546 18 ISS [Segment 59] 1 25544C 98067A 22188.00277778 -.00069596 00000+0 -12233-2 0 595 2 25544 51.6389 238.4530 0005319 341.9293 149.5285 15.49852876 18 ISS [Segment 60] 1 25544C 98067A 22188.25277778 -.00045535 00000+0 -79974-3 0 607 2 25544 51.6410 237.2145 0005099 341.7889 105.4438 15.49870784 15